Location: Courçay
(47.2523°N, 0.8761°E)
Time: 21:35:26
(UTC+00:00)

Geosat - Pass Details

Date: 18 November 2025
Orbit: 758 x 760 km, 108.0° (Epoch: 05 December)

Event Time Altitude Azimuth Distance (km) Brightness Sun altitude
Exits shadow 19:05:25 75° 276° (W) 790 4.0 -28.2°
Drops below altitude 10° 19:10:12 10° 329° (NNW) 2,301 6.8 -29.0°
Sets 19:12:29 0° 331° (NNW) 3,231 7.6 -29.4°
